Regional Weather Roundup
Issued by NWS

Home | Current Version | Previous Version | Text Only | Print | Product List | Glossary Off
Versions: 1 2 3 4 5 6 7 8 9 10 11 12 13 14 15 16 17 18 19 20 21 22 23 24 25 26 27 28 29 30 31 32 33 34 35 36 37 38 39 40 41 42 43 44 45 46 47 48 49 50

000
ASUS43 KBIS 280910
RWRND

NORTH DAKOTA REGIONAL WEATHER ROUNDUP
NATIONAL WEATHER SERVICE BISMARCK ND
400 AM CDT FRI AUG 28 2015

NOTE: "FAIR" INDICATES FEW OR NO CLOUDS BELOW 12,000 FEET WITH NO
SIGNIFICANT WEATHER AND/OR OBSTRUCTIONS TO VISIBILITY.


NDZ001>003-009>011-017-281000-
NORTHWEST NORTH DAKOTA

CITY           SKY/WX    TMP DP  RH WIND       PRES   REMARKS
WILLISTON      CLEAR     65  61  87 S3        29.86R
MINOT          CLEAR     69  59  70 SW15      29.82R
MINOT AFB      CLEAR     67  64  91 SW14      29.80R
$$

NDZ018>021-031>035-040>046-281000-
SOUTHWEST NORTH DAKOTA

CITY           SKY/WX    TMP DP  RH WIND       PRES   REMARKS
BISMARCK       PTCLDY    66  61  84 S7        29.91S
DICKINSON      MOCLDY    62  55  77 S12       29.91R
GARRISON         N/A     64  59  83 SW5       29.87S
HETTINGER ARPT PTCLDY    57  53  86 CALM      29.96S
$$

NDZ004>008-012>016-024-026-027-054-281000-
NORTHEAST NORTH DAKOTA

CITY           SKY/WX    TMP DP  RH WIND       PRES   REMARKS
GRAND FORKS    CLEAR     63  62  97 S7        29.84S
GRND FRKS AFB  CLEAR     65  64  96 SW6       29.84F
DEVILS LAKE    CLEAR     68  57  68 SW13      29.85R
$$

NDZ022-023-025-028>030-036>039-047>053-281000-
SOUTHEAST NORTH DAKOTA

CITY           SKY/WX    TMP DP  RH WIND       PRES   REMARKS
FARGO          PTCLDY    67  64  90 S9        29.90R
JAMESTOWN      PTCLDY    62  59  90 S8        29.90S
$$



USA.gov is the U.S. government's official web portal to all federal, state and local government web resources and services.